Lid_Strength_Index
-1 -0 -1 1 7 6 9 8 6 7 6 4 4 5 5 4 5 7 1 -0 -0 -1 -2 -2 -1 -2 -2 -2 -2 -2 -2 -2 -2 -2 -2 -2 -2 -2 -2 -2 -1 -1 -1 -1 -1 -1 -1 -1 -1
1 1 1 3 8 10 9 7 7 6 5 4 4 4 5 5 3 3 2 -0 -1 -1 -2 -2 -1 -2 -2 -2 -2 -2 -2 -2 -2 -2 -2 -2 -2 -2 -2 -2 -2 -2 -1 -1 -1 -1 -1 -1 -1
0 0 4 6 8 10 9 7 6 5 4 4 5 4 4 4 3 2 0 -0 -1 -1 -1 -2 -1 -1 -2 -2 -2 -2 -2 -2 -2 -2 -2 -2 -2 -2 -2 -2 -2 -2 -2 -2 -2 -2 -2 -1 -1
2 2 3 8 9 7 7 6 5 5 4 4 4 5 3 2 2 1 -0 -0 -0 -1 -1 -2 -1 -1 -1 -2 -2 -1 -1 -2 -2 -2 -2 -2 -2 -2 -2 -2 -2 -2 -2 -2 -2 -2 -2 -2 -1
1 3 7 8 7 6 6 5 5 5 5 4 4 5 4 2 1 0 -0 -0 -0 -1 -1 -1 -1 -1 -1 -1 -1 -1 -1 -1 -2 -2 -2 -2 -2 -2 -1 -1 -1 -1 -2 -2 -2 -2 -2 -2 -2
4 4 8 9 7 6 5 4 4 5 4 4 5 4 3 1 1 0 -0 -0 -1 -1 -1 -2 -1 -1 -1 -1 -1 -1 -1 -1 -1 -1 -1 -2 -1 -1 -1 -1 -1 -2 -2 -2 -2 -2 -2 -2 -2
5 6 8 7 7 7 5 3 5 4 5 4 3 5 3 2 1 0 -0 -0 -1 -1 -1 -1 -1 -1 -1 -1 -1 -1 -1 -1 -1 -1 -1 -1 -1 -1 -2 -2 -2 -2 -2 -2 -1 -2 -2 -2 -1
4 5 7 7 8 7 5 4 4 4 5 3 3 5 4 2 1 0 0 -0 -0 -0 -1 -1 -1 -1 -1 -1 -1 -1 -1 -1 -1 -1 -1 -1 -1 -1 -1 -2 -2 -1 -1 -1 -2 -2 -2 -2 -1
3 7 8 8 7 6 4 5 4 3 4 3 3 3 2 1 1 1 1 1 0 0 -0 -1 -1 -1 -1 -1 -1 -1 -1 -1 -1 -1 -1 -1 -2 -2 -2 -2 -2 -1 -1 -1 -1 -1 -2 -1 -2
5 7 7 5 5 5 4 5 4 5 4 4 3 2 1 1 1 2 2 2 1 1 0 -0 -1 -1 -1 -1 -2 -2 -2 -2 -2 -2 -2 -2 -2 -2 -2 -2 -1 -1 -1 -1 -2 -1 -1 -1 -2
5 7 5 5 4 4 5 5 3 5 5 4 4 3 2 2 1 2 2 1 1 0 0 -0 -1 -1 -1 -1 -1 -1 -1 -1 -2 -2 -2 -2 -2 -2 -1 -1 -1 -2 -2 -1 -2 -1 -1 -2 -1
7 5 5 4 4 4 5 4 5 4 4 3 2 2 2 2 2 2 2 1 1 1 0 -0 -1 -1 -1 -1 -1 -1 -1 -1 -1 -1 -2 -1 -1 -1 -1 -0 -1 -1 -1 -1 -1 -1 -2 -2 -2
6 5 4 4 4 4 4 5 5 5 3 2 2 2 2 2 2 1 1 1 1 1 0 -0 -1 -0 -1 -1 -1 -1 -1 -1 -1 -1 -2 -2 -1 -1 -1 -1 -1 -1 -1 -1 -1 -1 -1 -1 -1
5 5 5 4 4 4 5 5 4 4 3 3 3 3 3 3 3 2 1 1 1 0 0 -0 -0 -1 -1 -0 -1 -1 -1 -1 -1 -1 -1 -2 -1 -1 -1 -0 -1 -1 -1 -1 -1 -1 -1 -1 -1
5 6 5 5 5 5 4 6 6 4 4 4 4 3 3 3 3 2 1 1 1 0 -0 -0 -0 -0 -0 -1 -1 -1 -1 -1 -1 -1 -2 -2 -2 -1 -1 -0 -0 -1 -1 -2 -1 -1 -1 -0 -1
7 6 9 6 5 5 6 9 6 4 4 5 4 4 4 3 2 2 1 1 0 0 0 -0 -0 -0 -0 -0 -1 -1 -1 -1 -1 -1 -1 -2 -2 -2 -1 -0 -0 -1 -1 -1 -0 -0 -0 0 0
8 10 9 8 5 6 7 8 5 4 4 5 4 4 4 3 2 1 1 1 0 0 0 0 -0 0 -0 -1 -1 -1 -1 -1 -1 -1 -1 -1 -1 -1 -1 -0 -0 -1 -1 -0 -0 -0 0 1 1
10 9 8 9 6 7 7 7 6 5 5 4 4 4 4 4 3 1 1 1 0 0 0 -0 0 -0 -0 -0 -1 -0 -0 -0 -1 -1 -1 -1 -1 -1 -1 -0 -0 -0 -0 0 -0 -0 -0 0 1
8 8 9 7 6 7 7 7 6 5 4 4 4 4 4 3 2 1 1 1 1 0 0 0 0 0 0 0 1 1 1 0 -0 -1 -1 -1 -1 -1 -1 -0 -0 -0 0 0 -0 0 1 1 -0
9 9 9 7 6 6 8 8 6 5 5 4 4 4 4 3 2 2 2 2 1 1 1 1 1 0 0 0 -0 -0 -0 -0 -1 -1 -1 -1 -1 -1 -1 -0 -0 -1 0 -0 -0 0 1 1 0
10 10 9 9 7 6 8 9 7 5 4 4 4 3 4 3 3 3 3 2 2 2 1 1 1 0 -0 -1 -0 0 -0 -0 1 0 0 -0 -1 -1 -1 -1 -1 -1 -1 0 0 0 1 2 1
11 9 9 9 9 12 8 12 8 6 6 5 4 4 4 3 3 3 3 3 2 2 1 1 0 0 0 -0 -0 0 1 2 0 0 -1 -0 -1 -1 -1 -1 -1 -1 -1 -0 -0 -0 -0 0 2
10 9 9 9 10 9 10 11 9 7 8 6 5 4 3 3 3 3 3 2 2 1 1 1 0 0 -0 -0 -1 1 1 0 0 -0 0 -0 -1 -1 -1 -1 -1 -1 -0 -0 -1 -0 -0 -0 1
7 9 9 8 9 13 11 11 11 9 7 6 5 5 3 4 3 3 2 2 2 1 1 1 1 1 0 0 0 1 1 1 1 1 1 0 -0 -0 -1 -1 -1 -1 -1 -0 -0 -1 -0 -0 0
8 10 13 14 14 15 10 11 11 7 6 5 5 4 4 4 4 3 3 3 2 2 1 1 1 1 0 0 0 0 0 1 1 1 0 1 1 0 -0 -1 -1 -1 -1 -1 -1 -0 -0 -0 0
9 10 13 16 16 14 9 13 10 6 5 4 4 4 4 4 3 3 3 3 2 2 1 1 1 1 1 0 0 0 0 0 -0 0 0 0 0 -0 -1 -1 -1 -1 -1 -1 -1 -0 -0 -0 -0
9 11 8 10 10 12 11 9 8 6 5 5 4 4 4 4 4 3 3 2 2 2 2 1 1 1 1 0 0 0 0 0 0 0 -1 -0 -1 -0 -0 -1 -1 -1 -1 -1 -1 -0 -0 -0 -0
8 7 11 10 15 16 12 11 11 8 6 5 5 5 4 4 4 3 3 2 2 2 1 1 1 1 1 0 0 0 0 -0 -1 -1 0 -0 -0 -0 -0 -0 -0 -0 -1 -1 -0 -0 -0 0 0
9 10 9 9 10 14 14 12 8 6 6 5 5 4 5 4 4 3 3 2 2 2 1 1 1 1 1 1 0 0 -0 -0 -0 -0 -0 -0 -0 -0 -0 -0 -0 -0 -0 -0 -0 -0 0 0 0
8 9 9 12 13 11 11 12 6 5 6 5 4 4 4 4 3 3 3 2 2 2 2 1 1 1 1 0 0 1 0 -0 0 0 0 -0 0 -0 -0 -0 0 0 -0 -0 0 0 0 1 1